Tracking 26544 objects as of 9-Dec-2022
HD Live streaming from Space Station
objects crossing your sky now

CZ-4B DEB

Track CZ-4B DEB now!
10-day predictions


NORAD ID: 43660
Int'l Code: 2018-081D
Perigee: 926.8 km
Apogee: 945.3 km
Inclination: 99.2 °
Period: 103.6 minutes
Semi major axis: 7307 km
RCS: Unknown
Launch date: October 24, 2018
Source: People's Republic of China (PRC)
Launch site: Taiyaun Space Center, China (TSC)

Note: This is SATELLITE DEBRIS
aabbcc
Your satellite tracking list
Your tracking list is empty




NASA's NSSDC Master Catalog

Two Line Element Set (TLE):
1 43660U 18081D   22342.49985827  .00000164  00000-0  16966-3 0  9994
2 43660  99.2423   6.9022 0012691 234.8145 125.1825 13.89926738209129
Source of the keplerian elements: AFSPC